When you browse on this site, cookies collect data to enhance your experience and personalize the content and advertising you see.
Visit our Privacy Policy to learn more. By continuing to use the site, you agree to this use of cookies and data.
  • In Denmark
  • List of Countries
  • For 7 days
  • Water Temperature
  • Satellite Maps
  • Weather Map
  • Weather Widgets
  • user-avatar
    Login

    Hourly Weather Melbourne

    Today, 21 November, Wednesday

    Time Temperature Precipitation Wind Pressure Humidity
    00:00 +17°C° 2 mm 3 mps 748 mmHg 97%
    01:00 +17°C° 2 mm 3 mps 748 mmHg 96%
    02:00 +16°C° 0.3 mm 3 mps 748 mmHg 96%
    03:00 +14°C° 0.3 mm 3 mps 748 mmHg 95%
    04:00 +13°C° 0 mm 4 mps 749 mmHg 91%
    05:00 +13°C° 0 mm 3 mps 749 mmHg 90%
    06:00 +12°C° 0 mm 3 mps 749 mmHg 89%
    07:00 +13°C° 0 mm 2 mps 750 mmHg 87%
    08:00 +15°C° 0 mm 2 mps 749 mmHg 75%
    09:00 +17°C° 0 mm 2 mps 749 mmHg 63%
    10:00 +20°C° 0 mm 1 mps 749 mmHg 52%
    11:00 +21°C° 0 mm 1 mps 749 mmHg 48%
    12:00 +21°C° 0 mm 2 mps 748 mmHg 44%
    13:00 +23°C° 0 mm 2 mps 748 mmHg 39%
    14:00 +22°C° 0 mm 3 mps 747 mmHg 41%
    15:00 +21°C° 0 mm 3 mps 746 mmHg 42%
    16:00 +21°C° 0 mm 3 mps 746 mmHg 43%
    17:00 +20°C° 0.2 mm 3 mps 746 mmHg 52%
    18:00 +18°C° 0.2 mm 3 mps 746 mmHg 61%
    19:00 +16°C° 0.2 mm 3 mps 746 mmHg 71%
    20:00 +14°C° 1.9 mm 3 mps 746 mmHg 79%
    21:00 +13°C° 1.9 mm 3 mps 746 mmHg 86%
    22:00 +11°C° 1.9 mm 4 mps 747 mmHg 94%
    23:00 +11°C° 0.8 mm 3 mps 746 mmHg 93%

    Tomorrow, 22 November, Thursday

    Time Temperature Precipitation Wind Pressure Humidity
    00:00 +10°C° 0.8 mm 2 mps 746 mmHg 92%
    01:00 +10°C° 0.8 mm 1 mps 746 mmHg 91%
    02:00 +9°C° 0.1 mm 2 mps 746 mmHg 90%
    03:00 +8°C° 0.1 mm 2 mps 745 mmHg 90%
    04:00 +7°C° 0.1 mm 2 mps 745 mmHg 89%
    05:00 +8°C° 0.1 mm 2 mps 745 mmHg 87%
    06:00 +9°C° 0.1 mm 3 mps 745 mmHg 86%
    07:00 +9°C° 0.1 mm 3 mps 745 mmHg 85%
    08:00 +10°C° 0.2 mm 3 mps 745 mmHg 79%
    09:00 +12°C° 0.2 mm 3 mps 745 mmHg 73%
    10:00 +13°C° 0.2 mm 3 mps 745 mmHg 67%
    11:00 +13°C° 0.7 mm 3 mps 745 mmHg 69%
    12:00 +13°C° 0.7 mm 4 mps 745 mmHg 71%
    13:00 +14°C° 0.7 mm 4 mps 745 mmHg 73%
    14:00 +14°C° 0.3 mm 5 mps 745 mmHg 71%
    15:00 +14°C° 0.3 mm 5 mps 745 mmHg 69%
    16:00 +14°C° 0.3 mm 5 mps 745 mmHg 67%
    17:00 +13°C° 1.9 mm 6 mps 746 mmHg 76%
    18:00 +11°C° 1.9 mm 7 mps 747 mmHg 84%
    19:00 +10°C° 1.9 mm 8 mps 748 mmHg 92%
    20:00 +10°C° 0.3 mm 8 mps 749 mmHg 91%
    21:00 +10°C° 0.3 mm 7 mps 749 mmHg 89%
    22:00 +9°C° 0.3 mm 7 mps 750 mmHg 88%
    23:00 +9°C° 0.1 mm 7 mps 750 mmHg 87%

    Day after tomorrow, 23 November, Friday

    Time Temperature Precipitation Wind Pressure Humidity
    00:00 +9°C° 0.1 mm 7 mps 751 mmHg 85%
    01:00 +9°C° 0.1 mm 7 mps 751 mmHg 84%
    02:00 +9°C° 0.1 mm 7 mps 751 mmHg 83%
    03:00 +9°C° 0.1 mm 7 mps 751 mmHg 82%
    04:00 +9°C° 0.1 mm 7 mps 751 mmHg 80%
    05:00 +9°C° 0.1 mm 7 mps 751 mmHg 79%
    06:00 +10°C° 0.1 mm 7 mps 751 mmHg 78%
    07:00 +10°C° 0.1 mm 7 mps 751 mmHg 77%
    08:00 +10°C° 0.4 mm 7 mps 751 mmHg 79%
    09:00 +10°C° 0.4 mm 7 mps 751 mmHg 80%
    10:00 +11°C° 0.4 mm 7 mps 751 mmHg 81%
    11:00 +11°C° 0.8 mm 7 mps 751 mmHg 85%
    12:00 +10°C° 0.8 mm 7 mps 751 mmHg 89%
    13:00 +10°C° 0.8 mm 7 mps 751 mmHg 93%
    14:00 +11°C° 0.5 mm 7 mps 751 mmHg 92%
    15:00 +11°C° 0.5 mm 7 mps 751 mmHg 91%
    16:00 +12°C° 0.5 mm 8 mps 751 mmHg 90%
    17:00 +12°C° 0.5 mm 7 mps 752 mmHg 91%
    18:00 +12°C° 0.5 mm 7 mps 752 mmHg 91%
    19:00 +12°C° 0.5 mm 7 mps 753 mmHg 92%
    20:00 +12°C° 0.3 mm 7 mps 753 mmHg 92%
    21:00 +13°C° 0.3 mm 6 mps 753 mmHg 92%
    22:00 +13°C° 0.3 mm 6 mps 754 mmHg 92%
    23:00 +11°C° 0.1 mm 6 mps 754 mmHg 92%

    24 November, Saturday

    Time Temperature Precipitation Wind Pressure Humidity
    00:00 +12°C° 0.1 mm 5 mps 754 mmHg 91%
    01:00 +12°C° 0.1 mm 5 mps 754 mmHg 91%
    02:00 +12°C° 0.1 mm 5 mps 754 mmHg 91%
    03:00 +12°C° 0.1 mm 5 mps 754 mmHg 91%
    04:00 +10°C° 0.1 mm 5 mps 754 mmHg 92%
    05:00 +12°C° 0.2 mm 5 mps 755 mmHg 91%
    06:00 +12°C° 0.2 mm 5 mps 755 mmHg 91%
    07:00 +12°C° 0.2 mm 5 mps 755 mmHg 90%
    08:00 +13°C° 0.1 mm 4 mps 755 mmHg 86%
    09:00 +14°C° 0.1 mm 4 mps 755 mmHg 82%
    10:00 +15°C° 0.1 mm 4 mps 755 mmHg 78%
    11:00 +15°C° 0.1 mm 4 mps 755 mmHg 76%
    12:00 +17°C° 0.1 mm 4 mps 755 mmHg 73%
    13:00 +18°C° 0.1 mm 4 mps 754 mmHg 71%
    14:00 +18°C° 0 mm 4 mps 754 mmHg 69%
    15:00 +18°C° 0 mm 4 mps 754 mmHg 67%
    16:00 +18°C° 0 mm 4 mps 754 mmHg 65%
    17:00 +17°C° 0 mm 4 mps 754 mmHg 70%
    18:00 +16°C° 0 mm 3 mps 755 mmHg 75%
    19:00 +14°C° 0 mm 3 mps 755 mmHg 80%
    20:00 +14°C° 0 mm 2 mps 755 mmHg 85%
    21:00 +13°C° 0 mm 2 mps 755 mmHg 90%
    22:00 +12°C° 0 mm 1 mps 755 mmHg 94%
    23:00 +12°C° 0 mm 1 mps 755 mmHg 95%

    25 November, Sunday

    Time Temperature Precipitation Wind Pressure Humidity
    00:00 +11°C° 0 mm 1 mps 754 mmHg 96%
    01:00 +11°C° 0 mm 1 mps 754 mmHg 96%
    02:00 +11°C° 0 mm 1 mps 754 mmHg 96%
    03:00 +11°C° 0 mm 1 mps 753 mmHg 96%
    04:00 +11°C° 0 mm 1 mps 753 mmHg 96%
    05:00 +12°C° 0 mm 1 mps 753 mmHg 93%
    06:00 +13°C° 0 mm 1 mps 753 mmHg 90%
    07:00 +14°C° 0 mm 1 mps 754 mmHg 87%
    08:00 +16°C° 0 mm 1 mps 754 mmHg 76%
    09:00 +19°C° 0 mm 1 mps 753 mmHg 66%
    10:00 +21°C° 0 mm 1 mps 753 mmHg 55%
    11:00 +23°C° 0 mm 1 mps 753 mmHg 52%
    12:00 +24°C° 0 mm 2 mps 752 mmHg 49%
    13:00 +25°C° 0 mm 2 mps 752 mmHg 45%
    14:00 +24°C° 0 mm 3 mps 751 mmHg 47%
    15:00 +24°C° 0 mm 3 mps 751 mmHg 49%
    16:00 +23°C° 0 mm 4 mps 751 mmHg 51%
    17:00 +21°C° 0 mm 3 mps 751 mmHg 58%
    18:00 +20°C° 0 mm 3 mps 751 mmHg 65%
    19:00 +18°C° 0 mm 3 mps 752 mmHg 72%
    20:00 +17°C° 0 mm 2 mps 752 mmHg 78%
    21:00 +16°C° 0 mm 2 mps 752 mmHg 83%
    22:00 +14°C° 0 mm 2 mps 753 mmHg 89%
    23:00 +14°C° 0 mm 1 mps 753 mmHg 90%

    26 November, Monday

    Time Temperature Precipitation Wind Pressure Humidity
    00:00 +13°C° 0 mm 1 mps 752 mmHg 92%
    01:00 +13°C° 0 mm 1 mps 752 mmHg 93%
    02:00 +13°C° 0 mm 1 mps 752 mmHg 93%
    03:00 +12°C° 0 mm 1 mps 752 mmHg 94%
    04:00 +12°C° 0 mm 1 mps 752 mmHg 94%
    05:00 +14°C° 0 mm 1 mps 752 mmHg 87%
    06:00 +15°C° 0 mm 1 mps 753 mmHg 80%
    07:00 +18°C° 0 mm 1 mps 753 mmHg 74%
    08:00 +20°C° 0 mm 1 mps 753 mmHg 65%
    09:00 +22°C° 0 mm 1 mps 753 mmHg 57%
    10:00 +24°C° 0 mm 1 mps 752 mmHg 49%
    11:00 +25°C° 0 mm 1 mps 752 mmHg 47%
    12:00 +26°C° 0 mm 2 mps 751 mmHg 46%
    13:00 +26°C° 0 mm 2 mps 751 mmHg 44%
    14:00 +26°C° 0 mm 2 mps 750 mmHg 45%
    15:00 +26°C° 0 mm 2 mps 750 mmHg 46%
    16:00 +26°C° 0 mm 2 mps 750 mmHg 48%
    17:00 +25°C° 0 mm 2 mps 750 mmHg 53%
    18:00 +23°C° 0 mm 2 mps 750 mmHg 58%
    19:00 +21°C° 0 mm 2 mps 750 mmHg 63%
    20:00 +20°C° 0 mm 2 mps 750 mmHg 66%
    21:00 +19°C° 0 mm 2 mps 750 mmHg 68%
    22:00 +18°C° 0 mm 3 mps 749 mmHg 70%
    23:00 +17°C° 0 mm 2 mps 748 mmHg 71%
    Show more